Find Arase

NORAD ID: 41896 Int'l Des: 2016-080 Owner: ISASJ Country: J operational
MEOELLIPTICALHEO_ELLIPTICAL

リアルタイム位置

3D地球を読み込み中...

Araseについて

説明を読み込み中...

次回通過

Passes for default location (London). Set your location on the main map for personalized predictions.

高度履歴

Loading altitude history...

軌道要素

1 41896U 16080A 26120.61339564 .00000467 00000-0 16717-2 0 9992
2 41896 31.9062 27.1790 6995321 18.4475 357.5913 2.57601979 87050
Epoch: Apr 30, 2026 • Age: 16 hours

現在のステータス

高度 25726.7 km
速度 2.66 km/s
衛星直下点 -20.81°S, 78.79°W
打ち上げ日 Dec 20, 2016
運用期間 9.3 years
タイプ other

技術仕様

分類 Payload
質量 350.00 kg
乾燥質量 350.00 kg
総質量 350.00 kg
長さ 1.70 m
直径 1.50 m
スパン 30.00 m
形状 Box+4 pan+6 ant
製造者 ISASJ
バスタイプ SPRINT-B
フェーズステータス In Orbit
所有者/国 ISASJ/J

Most Searched